N2528E MMZH-MMTP

Flight info

Callsign N2528E
Flight time 3h 54m
Altitude 11000
Route ZIH V1 TAP
Aircraft M20P/L-VGD/C

Departure

Time 2026-04-28 17:56
Airport Ixtapa-Zihuatanejo International Airport (MMZH)

Arrival

Time 2026-04-28 21:50
Airport Tapachula International Airport (MMTP)
Time Latitude Longitude Altitude Speed Heading
2026-04-28 17:48 17.60495 -101.46157 22 ft 0 kts 275°
2026-04-28 17:53 17.60495 -101.46158 22 ft 0 kts 275°
2026-04-28 17:53 17.60487 -101.46193 22 ft 11 kts 253°
2026-04-28 17:54 17.60478 -101.46307 22 ft 20 kts 273°
2026-04-28 17:54 17.60473 -101.46452 21 ft 19 kts 219°
2026-04-28 17:54 17.60355 -101.46480 21 ft 17 kts 224°
2026-04-28 17:54 17.60296 -101.46581 20 ft 16 kts 237°
2026-04-28 17:55 17.60248 -101.46680 19 ft 15 kts 243°
2026-04-28 17:55 17.60191 -101.46727 19 ft 12 kts 102°
2026-04-28 17:55 17.60173 -101.46551 20 ft 45 kts 94°
2026-04-28 17:55 17.60163 -101.46082 33 ft 79 kts 89°
2026-04-28 17:56 17.60211 -101.45496 195 ft 84 kts 83°
2026-04-28 17:56 17.60216 -101.44831 351 ft 92 kts 92°
2026-04-28 17:56 17.60199 -101.44178 619 ft 89 kts 92°
2026-04-28 17:56 17.60183 -101.43520 857 ft 91 kts 92°
2026-04-28 17:57 17.60162 -101.42858 1101 ft 93 kts 92°
2026-04-28 17:57 17.60139 -101.42174 1352 ft 94 kts 92°
2026-04-28 17:57 17.60117 -101.41493 1610 ft 95 kts 92°
2026-04-28 17:57 17.60096 -101.40805 1880 ft 93 kts 92°
2026-04-28 17:58 17.60075 -101.40146 2145 ft 90 kts 92°
2026-04-28 17:58 17.60014 -101.39503 2407 ft 86 kts 99°
2026-04-28 17:58 17.59947 -101.38900 2643 ft 83 kts 97°
2026-04-28 17:58 17.59894 -101.38300 2858 ft 82 kts 96°
2026-04-28 17:59 17.59853 -101.37709 3078 ft 79 kts 94°
2026-04-28 17:59 17.59820 -101.37146 3281 ft 75 kts 92°
2026-04-28 17:59 17.59780 -101.36558 3331 ft 95 kts 96°
2026-04-28 17:59 17.59724 -101.35787 3409 ft 114 kts 94°
2026-04-28 18:00 17.59676 -101.34917 3554 ft 124 kts 94°
2026-04-28 18:00 17.59631 -101.33990 3714 ft 131 kts 94°
2026-04-28 18:00 17.59473 -101.33044 3896 ft 133 kts 123°
2026-04-28 18:00 17.58675 -101.32647 4072 ft 133 kts 186°
2026-04-28 18:01 17.57763 -101.32818 4262 ft 135 kts 191°
2026-04-28 18:01 17.56833 -101.32992 4478 ft 135 kts 191°
2026-04-28 18:01 17.55925 -101.33154 4702 ft 133 kts 185°
2026-04-28 18:01 17.55008 -101.33031 4927 ft 132 kts 166°
2026-04-28 18:02 17.54211 -101.32584 5146 ft 131 kts 148°
2026-04-28 18:02 17.53443 -101.32074 5368 ft 130 kts 148°
2026-04-28 18:02 17.52688 -101.31567 5590 ft 129 kts 144°
2026-04-28 18:02 17.52162 -101.30811 5815 ft 129 kts 117°
2026-04-28 18:03 17.51757 -101.29985 6032 ft 128 kts 118°
2026-04-28 18:03 17.51351 -101.29156 6256 ft 126 kts 118°
2026-04-28 18:03 17.50958 -101.28348 6471 ft 125 kts 118°
2026-04-28 18:03 17.50565 -101.27541 6693 ft 123 kts 118°
2026-04-28 18:04 17.50177 -101.26740 6917 ft 121 kts 118°
2026-04-28 18:04 17.49800 -101.25961 7135 ft 120 kts 118°
2026-04-28 18:04 17.49427 -101.25195 7354 ft 118 kts 118°
2026-04-28 18:04 17.49057 -101.24432 7574 ft 116 kts 118°
2026-04-28 18:05 17.48698 -101.23691 7790 ft 113 kts 118°
2026-04-28 18:05 17.48461 -101.23203 7937 ft 112 kts 118°
2026-04-28 18:05 17.47998 -101.22249 8225 ft 108 kts 118°
2026-04-28 18:05 17.47665 -101.21562 8438 ft 104 kts 118°
2026-04-28 18:06 17.47341 -101.20892 8636 ft 102 kts 117°
2026-04-28 18:06 17.47018 -101.20228 8804 ft 102 kts 118°
2026-04-28 18:06 17.46700 -101.19574 8975 ft 101 kts 118°
2026-04-28 18:06 17.46384 -101.18923 9143 ft 100 kts 118°
2026-04-28 18:07 17.46069 -101.18274 9313 ft 99 kts 118°
2026-04-28 18:07 17.45762 -101.17643 9481 ft 97 kts 117°
2026-04-28 18:07 17.45458 -101.17016 9647 ft 95 kts 117°
2026-04-28 18:07 17.45166 -101.16415 9808 ft 92 kts 117°
2026-04-28 18:08 17.44883 -101.15829 9936 ft 91 kts 118°
2026-04-28 18:08 17.44585 -101.15221 10042 ft 95 kts 118°
2026-04-28 18:08 17.44282 -101.14600 10136 ft 99 kts 118°
2026-04-28 18:08 17.43955 -101.13931 10237 ft 105 kts 118°
2026-04-28 18:09 17.43613 -101.13232 10334 ft 111 kts 118°
2026-04-28 18:09 17.43248 -101.12484 10431 ft 117 kts 118°
2026-04-28 18:09 17.42872 -101.11712 10527 ft 123 kts 118°
2026-04-28 18:09 17.42472 -101.10888 10620 ft 128 kts 118°
2026-04-28 18:10 17.42057 -101.10037 10711 ft 133 kts 118°
2026-04-28 18:10 17.41634 -101.09168 10798 ft 137 kts 117°
2026-04-28 18:10 17.41196 -101.08267 10887 ft 141 kts 118°
2026-04-28 18:10 17.40743 -101.07339 10969 ft 144 kts 118°
2026-04-28 18:11 17.40283 -101.06393 11009 ft 149 kts 118°
2026-04-28 18:11 17.39797 -101.05401 11013 ft 155 kts 117°
2026-04-28 18:11 17.39299 -101.04376 11010 ft 161 kts 118°
2026-04-28 18:11 17.38782 -101.03314 11004 ft 167 kts 118°
2026-04-28 18:12 17.38248 -101.02216 11008 ft 171 kts 118°
2026-04-28 18:12 17.37708 -101.01111 11008 ft 172 kts 118°
2026-04-28 18:12 17.37162 -100.99989 11010 ft 172 kts 118°
2026-04-28 18:12 17.36615 -100.98869 11009 ft 174 kts 118°
2026-04-28 18:13 17.36066 -100.97741 11010 ft 175 kts 118°
2026-04-28 18:13 17.35504 -100.96588 11002 ft 177 kts 118°
2026-04-28 18:13 17.34952 -100.95454 11003 ft 177 kts 118°
2026-04-28 18:13 17.34389 -100.94303 11004 ft 179 kts 118°
2026-04-28 18:14 17.33816 -100.93129 11010 ft 180 kts 118°
2026-04-28 18:14 17.33253 -100.91974 11007 ft 179 kts 118°
2026-04-28 18:14 17.32682 -100.90804 11011 ft 179 kts 118°
2026-04-28 18:14 17.32117 -100.89648 11004 ft 180 kts 118°
2026-04-28 18:15 17.31549 -100.88485 11001 ft 179 kts 118°
2026-04-28 18:15 17.30980 -100.87317 11004 ft 179 kts 118°
2026-04-28 18:15 17.30415 -100.86161 11005 ft 179 kts 118°
2026-04-28 18:15 17.29845 -100.84994 11005 ft 180 kts 117°
2026-04-28 18:16 17.29283 -100.83845 11006 ft 179 kts 118°
2026-04-28 18:16 17.28713 -100.82679 11003 ft 178 kts 118°
2026-04-28 18:16 17.28155 -100.81536 11002 ft 177 kts 118°
2026-04-28 18:16 17.27596 -100.80392 11000 ft 178 kts 118°
2026-04-28 18:17 17.27027 -100.79230 11000 ft 178 kts 118°
2026-04-28 18:17 17.26463 -100.78076 10999 ft 177 kts 118°
2026-04-28 18:17 17.25905 -100.76936 11001 ft 178 kts 118°
2026-04-28 18:17 17.25342 -100.75784 11003 ft 179 kts 118°
2026-04-28 18:18 17.24771 -100.74616 11002 ft 179 kts 118°
2026-04-28 18:18 17.24204 -100.73458 11003 ft 179 kts 118°
2026-04-28 18:18 17.23642 -100.72310 11004 ft 178 kts 118°
2026-04-28 18:18 17.23264 -100.71538 11001 ft 179 kts 118°
2026-04-28 18:19 17.22513 -100.70003 11002 ft 178 kts 118°
2026-04-28 18:19 17.21947 -100.68849 11003 ft 177 kts 118°
2026-04-28 18:19 17.21389 -100.67709 11003 ft 178 kts 118°
2026-04-28 18:19 17.20820 -100.66548 11000 ft 178 kts 118°
2026-04-28 18:20 17.20259 -100.65404 11000 ft 178 kts 118°
2026-04-28 18:20 17.19695 -100.64253 11003 ft 177 kts 118°
2026-04-28 18:20 17.19129 -100.63095 10999 ft 177 kts 118°
2026-04-28 18:20 17.18569 -100.61955 10999 ft 178 kts 118°
2026-04-28 18:21 17.17999 -100.60792 11001 ft 178 kts 118°
2026-04-28 18:21 17.17435 -100.59643 11003 ft 179 kts 118°
2026-04-28 18:21 17.16865 -100.58479 11003 ft 178 kts 118°
2026-04-28 18:21 17.16301 -100.57331 11005 ft 179 kts 118°
2026-04-28 18:22 17.15736 -100.56179 11000 ft 178 kts 118°
2026-04-28 18:22 17.15166 -100.55016 11000 ft 177 kts 118°
2026-04-28 18:22 17.14604 -100.53871 11000 ft 177 kts 118°
2026-04-28 18:22 17.14046 -100.52735 10999 ft 177 kts 118°
2026-04-28 18:23 17.13483 -100.51590 10998 ft 176 kts 118°
2026-04-28 18:23 17.12928 -100.50457 11000 ft 177 kts 118°
2026-04-28 18:23 17.12369 -100.49322 10632 ft 170 kts 116°
2026-04-28 18:23 17.11844 -100.48254 10743 ft 163 kts 116°
2026-04-28 18:24 17.11330 -100.47208 10860 ft 159 kts 115°
2026-04-28 18:24 17.10998 -100.46530 10927 ft 155 kts 115°
2026-04-28 18:24 17.10343 -100.45195 10960 ft 156 kts 115°
2026-04-28 18:24 17.09844 -100.44182 10959 ft 158 kts 115°
2026-04-28 18:25 17.09340 -100.43156 10960 ft 161 kts 115°
2026-04-28 18:25 17.08824 -100.42105 10965 ft 161 kts 115°
2026-04-28 18:25 17.08314 -100.41069 10968 ft 162 kts 115°
2026-04-28 18:26 17.07282 -100.38972 10967 ft 162 kts 115°
2026-04-28 18:26 17.06763 -100.37916 10965 ft 162 kts 115°
2026-04-28 18:26 17.06250 -100.36874 10965 ft 163 kts 115°
2026-04-28 18:26 17.05729 -100.35816 10965 ft 163 kts 115°
2026-04-28 18:27 17.05215 -100.34771 10966 ft 162 kts 115°
2026-04-28 18:27 17.04693 -100.33713 10961 ft 162 kts 115°
2026-04-28 18:27 17.04179 -100.32667 10964 ft 162 kts 115°
2026-04-28 18:27 17.03664 -100.31622 10968 ft 162 kts 115°
2026-04-28 18:28 17.03146 -100.30570 10963 ft 162 kts 115°
2026-04-28 18:28 17.02629 -100.29521 10966 ft 162 kts 115°
2026-04-28 18:28 17.02116 -100.28480 10964 ft 162 kts 115°
2026-04-28 18:28 17.01598 -100.27428 10966 ft 163 kts 115°
2026-04-28 18:29 17.01081 -100.26377 10964 ft 163 kts 115°
2026-04-28 18:29 17.00559 -100.25320 10963 ft 164 kts 115°
2026-04-28 18:29 17.00040 -100.24269 10962 ft 164 kts 115°
2026-04-28 18:29 16.99515 -100.23206 10964 ft 164 kts 115°
2026-04-28 18:30 16.98992 -100.22144 10963 ft 164 kts 115°
2026-04-28 18:30 16.98822 -100.21797 10965 ft 164 kts 115°
2026-04-28 18:30 16.97945 -100.20024 10964 ft 164 kts 115°
2026-04-28 18:30 16.97428 -100.18974 10961 ft 164 kts 115°
2026-04-28 18:31 16.96904 -100.17911 10962 ft 165 kts 115°
2026-04-28 18:31 16.96377 -100.16843 10966 ft 165 kts 115°
2026-04-28 18:31 16.95848 -100.15772 10963 ft 165 kts 115°
2026-04-28 18:31 16.95324 -100.14713 10961 ft 165 kts 115°
2026-04-28 18:32 16.94795 -100.13641 10963 ft 165 kts 115°
2026-04-28 18:32 16.94273 -100.12584 10961 ft 164 kts 115°
2026-04-28 18:32 16.93755 -100.11532 10960 ft 163 kts 115°
2026-04-28 18:32 16.93231 -100.10474 10957 ft 163 kts 115°
2026-04-28 18:33 16.92714 -100.09429 10957 ft 162 kts 115°
2026-04-28 18:33 16.92196 -100.08381 10956 ft 162 kts 115°
2026-04-28 18:33 16.91682 -100.07341 10959 ft 162 kts 115°
2026-04-28 18:33 16.91163 -100.06293 10959 ft 162 kts 115°
2026-04-28 18:34 16.90819 -100.05597 10955 ft 162 kts 115°
2026-04-28 18:34 16.90298 -100.04543 10959 ft 162 kts 115°
2026-04-28 18:34 16.89784 -100.03503 10955 ft 162 kts 115°
2026-04-28 18:34 16.89262 -100.02450 10956 ft 162 kts 115°
2026-04-28 18:35 16.88748 -100.01410 10956 ft 162 kts 115°
2026-04-28 18:35 16.88228 -100.00360 10960 ft 162 kts 115°
2026-04-28 18:35 16.87715 -99.99324 10957 ft 162 kts 115°
2026-04-28 18:35 16.87195 -99.98272 10956 ft 162 kts 115°
2026-04-28 18:36 16.86679 -99.97232 10955 ft 162 kts 115°
2026-04-28 18:36 16.86162 -99.96187 10959 ft 162 kts 115°
2026-04-28 18:36 16.85643 -99.95140 10960 ft 162 kts 115°
2026-04-28 18:36 16.85132 -99.94108 10964 ft 162 kts 115°
2026-04-28 18:37 16.84614 -99.93063 10962 ft 162 kts 115°
2026-04-28 18:37 16.84093 -99.92012 10962 ft 162 kts 115°
2026-04-28 18:37 16.83580 -99.90979 10965 ft 162 kts 115°
2026-04-28 18:37 16.83064 -99.89936 10963 ft 163 kts 115°
2026-04-28 18:38 16.82539 -99.88878 10967 ft 162 kts 115°
2026-04-28 18:38 16.82025 -99.87840 10968 ft 162 kts 115°
2026-04-28 18:38 16.81502 -99.86787 10969 ft 162 kts 115°
2026-04-28 18:38 16.80981 -99.85736 10968 ft 162 kts 115°
2026-04-28 18:39 16.80466 -99.84698 10969 ft 162 kts 115°
2026-04-28 18:39 16.79944 -99.83648 10969 ft 162 kts 115°
2026-04-28 18:39 16.79430 -99.82611 10972 ft 163 kts 115°
2026-04-28 18:39 16.78908 -99.81559 10969 ft 163 kts 115°
2026-04-28 18:40 16.78391 -99.80518 10971 ft 163 kts 115°
2026-04-28 18:40 16.77866 -99.79461 10972 ft 163 kts 115°
2026-04-28 18:40 16.77349 -99.78419 10969 ft 162 kts 115°
2026-04-28 18:40 16.76827 -99.77369 10972 ft 163 kts 115°
2026-04-28 18:41 16.76308 -99.76324 10969 ft 163 kts 115°
2026-04-28 18:41 16.75802 -99.75264 10969 ft 162 kts 109°
2026-04-28 18:41 16.75450 -99.74146 10970 ft 162 kts 106°
2026-04-28 18:41 16.75091 -99.73040 10970 ft 162 kts 107°
2026-04-28 18:42 16.74726 -99.71918 10972 ft 162 kts 107°
2026-04-28 18:42 16.74369 -99.70818 10970 ft 162 kts 107°
2026-04-28 18:42 16.74008 -99.69701 10970 ft 161 kts 107°
2026-04-28 18:42 16.73648 -99.68587 10968 ft 161 kts 107°
2026-04-28 18:43 16.73293 -99.67489 10969 ft 161 kts 107°
2026-04-28 18:43 16.72933 -99.66376 10969 ft 161 kts 107°
2026-04-28 18:43 16.72576 -99.65274 10965 ft 161 kts 107°
2026-04-28 18:43 16.72220 -99.64172 10968 ft 162 kts 107°
2026-04-28 18:44 16.71856 -99.63048 10966 ft 163 kts 107°
2026-04-28 18:44 16.71130 -99.60805 10964 ft 164 kts 107°
2026-04-28 18:44 16.70764 -99.59673 10961 ft 164 kts 107°
2026-04-28 18:45 16.70402 -99.58557 10960 ft 163 kts 107°
2026-04-28 18:45 16.70038 -99.57430 10961 ft 163 kts 107°
2026-04-28 18:45 16.69677 -99.56318 10959 ft 162 kts 107°
2026-04-28 18:45 16.69314 -99.55199 10957 ft 162 kts 107°
2026-04-28 18:46 16.68954 -99.54089 10956 ft 162 kts 106°
2026-04-28 18:46 16.68591 -99.52967 10953 ft 163 kts 106°
2026-04-28 18:46 16.68233 -99.51863 10954 ft 162 kts 106°
2026-04-28 18:46 16.67868 -99.50738 10951 ft 162 kts 106°
2026-04-28 18:47 16.67511 -99.49635 10948 ft 161 kts 106°
2026-04-28 18:47 16.67149 -99.48522 10946 ft 161 kts 106°
2026-04-28 18:47 16.66792 -99.47421 10945 ft 161 kts 106°
2026-04-28 18:47 16.66437 -99.46326 10943 ft 160 kts 106°
2026-04-28 18:48 16.66076 -99.45217 10941 ft 160 kts 106°
2026-04-28 18:48 16.65721 -99.44123 10943 ft 161 kts 106°
2026-04-28 18:48 16.65361 -99.43014 10943 ft 160 kts 106°
2026-04-28 18:48 16.65006 -99.41920 10935 ft 160 kts 106°
2026-04-28 18:49 16.64647 -99.40814 10934 ft 160 kts 106°
2026-04-28 18:49 16.64408 -99.40078 10937 ft 160 kts 106°
2026-04-28 18:49 16.63933 -99.38616 10936 ft 160 kts 107°
2026-04-28 18:49 16.63575 -99.37511 10936 ft 160 kts 107°
2026-04-28 18:50 16.63220 -99.36421 10935 ft 160 kts 107°
2026-04-28 18:50 16.62863 -99.35321 10935 ft 160 kts 106°
2026-04-28 18:50 16.62504 -99.34217 10935 ft 160 kts 106°
2026-04-28 18:50 16.62150 -99.33129 10935 ft 160 kts 106°
2026-04-28 18:51 16.61791 -99.32023 10935 ft 160 kts 106°
2026-04-28 18:51 16.61436 -99.30932 10934 ft 160 kts 106°
2026-04-28 18:51 16.61076 -99.29827 10930 ft 160 kts 106°
2026-04-28 18:51 16.60722 -99.28739 10934 ft 160 kts 106°
2026-04-28 18:52 16.60363 -99.27633 10939 ft 160 kts 106°
2026-04-28 18:52 16.60006 -99.26537 10934 ft 160 kts 106°
2026-04-28 18:52 16.59647 -99.25435 10934 ft 160 kts 106°
2026-04-28 18:52 16.59293 -99.24348 10932 ft 160 kts 106°
2026-04-28 18:53 16.58934 -99.23245 10934 ft 160 kts 106°
2026-04-28 18:53 16.58580 -99.22157 10936 ft 160 kts 106°
2026-04-28 18:53 16.58222 -99.21057 10940 ft 160 kts 106°
2026-04-28 18:53 16.57865 -99.19962 10936 ft 160 kts 106°
2026-04-28 18:54 16.57505 -99.18858 10933 ft 160 kts 106°
2026-04-28 18:54 16.57150 -99.17769 10934 ft 160 kts 106°
2026-04-28 18:54 16.56790 -99.16666 10935 ft 160 kts 106°
2026-04-28 18:54 16.56431 -99.15565 10934 ft 160 kts 106°
2026-04-28 18:55 16.56077 -99.14479 10935 ft 160 kts 106°
2026-04-28 18:55 16.55839 -99.13749 10933 ft 160 kts 106°
2026-04-28 18:55 16.55362 -99.12289 10933 ft 160 kts 106°
2026-04-28 18:55 16.55003 -99.11188 10935 ft 160 kts 106°
2026-04-28 18:56 16.54647 -99.10098 10936 ft 159 kts 106°
2026-04-28 18:56 16.54287 -99.08995 10935 ft 160 kts 106°
2026-04-28 18:56 16.53931 -99.07904 10935 ft 160 kts 106°
2026-04-28 18:56 16.53571 -99.06801 10934 ft 160 kts 106°
2026-04-28 18:57 16.53215 -99.05711 10929 ft 160 kts 106°
2026-04-28 18:57 16.52858 -99.04620 10930 ft 160 kts 106°
2026-04-28 18:57 16.52498 -99.03519 10931 ft 160 kts 106°
2026-04-28 18:57 16.52142 -99.02430 10935 ft 159 kts 106°
2026-04-28 18:58 16.51781 -99.01327 10933 ft 160 kts 106°
2026-04-28 18:58 16.51427 -99.00241 10931 ft 160 kts 106°
2026-04-28 18:58 16.51066 -98.99140 10927 ft 160 kts 106°
2026-04-28 18:58 16.50712 -98.98055 10932 ft 160 kts 106°
2026-04-28 18:59 16.50350 -98.96951 10929 ft 160 kts 106°
2026-04-28 18:59 16.49994 -98.95862 10930 ft 160 kts 106°
2026-04-28 18:59 16.49635 -98.94768 10930 ft 160 kts 106°
2026-04-28 18:59 16.49274 -98.93662 10929 ft 160 kts 106°
2026-04-28 19:00 16.48919 -98.92578 10932 ft 160 kts 106°
2026-04-28 19:00 16.48557 -98.91475 10923 ft 160 kts 106°
2026-04-28 19:00 16.48201 -98.90389 10922 ft 160 kts 106°
2026-04-28 19:00 16.47840 -98.89286 10925 ft 160 kts 105°
2026-04-28 19:01 16.47484 -98.88201 10922 ft 160 kts 106°
2026-04-28 19:01 16.47123 -98.87101 10925 ft 160 kts 105°
2026-04-28 19:01 16.46767 -98.86016 10932 ft 160 kts 106°
2026-04-28 19:01 16.46405 -98.84912 10929 ft 160 kts 106°
2026-04-28 19:02 16.46048 -98.83823 10930 ft 160 kts 106°
2026-04-28 19:02 16.45687 -98.82724 10927 ft 160 kts 106°
2026-04-28 19:02 16.45326 -98.81625 10926 ft 160 kts 106°
2026-04-28 19:02 16.44970 -98.80541 10925 ft 159 kts 106°
2026-04-28 19:03 16.44609 -98.79441 10927 ft 159 kts 106°
2026-04-28 19:03 16.44254 -98.78360 10928 ft 159 kts 106°
2026-04-28 19:03 16.43897 -98.77272 10922 ft 159 kts 106°
2026-04-28 19:03 16.43536 -98.76173 10929 ft 159 kts 106°
2026-04-28 19:04 16.43179 -98.75086 10924 ft 159 kts 106°
2026-04-28 19:04 16.42818 -98.73988 10925 ft 160 kts 106°
2026-04-28 19:04 16.42461 -98.72902 10927 ft 159 kts 106°
2026-04-28 19:04 16.42098 -98.71801 10925 ft 159 kts 106°
2026-04-28 19:05 16.41742 -98.70716 10924 ft 159 kts 106°
2026-04-28 19:05 16.41380 -98.69617 10923 ft 160 kts 106°
2026-04-28 19:05 16.41021 -98.68525 10925 ft 160 kts 106°
2026-04-28 19:05 16.40663 -98.67436 10924 ft 160 kts 106°
2026-04-28 19:06 16.40300 -98.66334 10924 ft 160 kts 106°
2026-04-28 19:06 16.40059 -98.65602 10924 ft 160 kts 106°
2026-04-28 19:06 16.39582 -98.64153 10924 ft 160 kts 106°
2026-04-28 19:06 16.39223 -98.63062 10921 ft 160 kts 106°
2026-04-28 19:07 16.38858 -98.61956 10923 ft 160 kts 105°
2026-04-28 19:07 16.38499 -98.60866 10924 ft 161 kts 106°
2026-04-28 19:07 16.38136 -98.59767 10924 ft 161 kts 105°
2026-04-28 19:07 16.37772 -98.58659 10925 ft 161 kts 106°
2026-04-28 19:08 16.37405 -98.57552 10928 ft 162 kts 106°
2026-04-28 19:08 16.37042 -98.56448 10925 ft 163 kts 106°
2026-04-28 19:08 16.36672 -98.55321 10926 ft 164 kts 105°
2026-04-28 19:08 16.36304 -98.54205 10928 ft 164 kts 106°
2026-04-28 19:09 16.35931 -98.53080 10922 ft 163 kts 105°
2026-04-28 19:09 16.35562 -98.51960 10925 ft 164 kts 105°
2026-04-28 19:09 16.35191 -98.50835 10925 ft 164 kts 105°
2026-04-28 19:09 16.34821 -98.49715 10925 ft 164 kts 106°
2026-04-28 19:10 16.34446 -98.48583 10929 ft 165 kts 106°
2026-04-28 19:10 16.34076 -98.47460 10922 ft 165 kts 106°
2026-04-28 19:10 16.33702 -98.46324 10921 ft 165 kts 105°
2026-04-28 19:10 16.33329 -98.45196 10927 ft 166 kts 105°
2026-04-28 19:11 16.32951 -98.44056 10926 ft 165 kts 105°
2026-04-28 19:11 16.32580 -98.42932 10922 ft 166 kts 105°
2026-04-28 19:11 16.32201 -98.41783 10925 ft 166 kts 106°
2026-04-28 19:11 16.31826 -98.40650 10925 ft 167 kts 106°
2026-04-28 19:12 16.31448 -98.39505 10925 ft 167 kts 106°
2026-04-28 19:12 16.31072 -98.38371 10922 ft 168 kts 106°
2026-04-28 19:12 16.30691 -98.37220 10923 ft 168 kts 105°
2026-04-28 19:12 16.30313 -98.36077 10920 ft 167 kts 106°
2026-04-28 19:13 16.29937 -98.34945 10921 ft 166 kts 106°
2026-04-28 19:13 16.29558 -98.33798 10914 ft 167 kts 105°
2026-04-28 19:13 16.29181 -98.32655 10915 ft 167 kts 106°
2026-04-28 19:13 16.28801 -98.31508 10920 ft 167 kts 105°
2026-04-28 19:14 16.28425 -98.30370 10916 ft 167 kts 106°
2026-04-28 19:14 16.28043 -98.29222 10924 ft 167 kts 106°
2026-04-28 19:14 16.27666 -98.28087 10919 ft 167 kts 106°
2026-04-28 19:14 16.27292 -98.26956 10916 ft 165 kts 105°
2026-04-28 19:15 16.26916 -98.25820 10920 ft 166 kts 105°
2026-04-28 19:15 16.26538 -98.24682 10916 ft 165 kts 105°
2026-04-28 19:15 16.26167 -98.23561 10919 ft 166 kts 105°
2026-04-28 19:15 16.26043 -98.23190 10916 ft 165 kts 105°
2026-04-28 19:16 16.25413 -98.21287 10913 ft 166 kts 106°
2026-04-28 19:16 16.25037 -98.20159 10918 ft 167 kts 105°
2026-04-28 19:16 16.24786 -98.19401 10924 ft 166 kts 105°
2026-04-28 19:16 16.24410 -98.18268 10918 ft 164 kts 105°
2026-04-28 19:17 16.24041 -98.17157 10913 ft 163 kts 105°
2026-04-28 19:17 16.23546 -98.15665 10913 ft 164 kts 105°
2026-04-28 19:17 16.23297 -98.14913 10912 ft 164 kts 105°
2026-04-28 19:17 16.22922 -98.13788 10923 ft 164 kts 106°
2026-04-28 19:18 16.22551 -98.12672 10916 ft 165 kts 106°
2026-04-28 19:18 16.22173 -98.11533 10914 ft 165 kts 105°
2026-04-28 19:18 16.21802 -98.10417 10915 ft 164 kts 105°
2026-04-28 19:18 16.21427 -98.09287 10912 ft 164 kts 105°
2026-04-28 19:19 16.21054 -98.08168 10917 ft 166 kts 105°
2026-04-28 19:19 16.20677 -98.07032 10920 ft 165 kts 105°
2026-04-28 19:19 16.20304 -98.05911 10915 ft 164 kts 105°
2026-04-28 19:19 16.19924 -98.04775 10917 ft 165 kts 106°
2026-04-28 19:20 16.19551 -98.03651 10920 ft 165 kts 105°
2026-04-28 19:20 16.19177 -98.02525 10923 ft 165 kts 105°
2026-04-28 19:20 16.18798 -98.01390 10923 ft 165 kts 105°
2026-04-28 19:20 16.18422 -98.00256 10923 ft 165 kts 105°
2026-04-28 19:21 16.18048 -97.99136 10921 ft 164 kts 105°
2026-04-28 19:21 16.17676 -97.98021 10922 ft 165 kts 105°
2026-04-28 19:21 16.17302 -97.96892 10922 ft 165 kts 105°
2026-04-28 19:21 16.16928 -97.95770 10926 ft 165 kts 105°
2026-04-28 19:22 16.16554 -97.94652 10981 ft 162 kts 105°
2026-04-28 19:22 16.16308 -97.93914 10992 ft 162 kts 105°
2026-04-28 19:22 16.15816 -97.92436 10997 ft 162 kts 105°
2026-04-28 19:22 16.15445 -97.91326 10997 ft 163 kts 105°
2026-04-28 19:23 16.15076 -97.90220 10996 ft 161 kts 105°
2026-04-28 19:23 16.14705 -97.89104 11002 ft 164 kts 105°
2026-04-28 19:23 16.14333 -97.87991 10994 ft 162 kts 105°
2026-04-28 19:23 16.13961 -97.86882 10995 ft 162 kts 105°
2026-04-28 19:24 16.13595 -97.85781 10993 ft 162 kts 105°
2026-04-28 19:24 16.13223 -97.84664 10999 ft 162 kts 105°
2026-04-28 19:24 16.12850 -97.83552 11002 ft 163 kts 105°
2026-04-28 19:24 16.12481 -97.82452 11000 ft 161 kts 105°
2026-04-28 19:25 16.12118 -97.81358 11000 ft 161 kts 105°
2026-04-28 19:25 16.11747 -97.80249 11008 ft 162 kts 105°
2026-04-28 19:25 16.11375 -97.79134 11000 ft 162 kts 105°
2026-04-28 19:25 16.11006 -97.78034 11000 ft 163 kts 105°
2026-04-28 19:26 16.10638 -97.76930 11001 ft 162 kts 105°
2026-04-28 19:26 16.10265 -97.75812 11005 ft 164 kts 105°
2026-04-28 19:26 16.09893 -97.74702 11004 ft 164 kts 105°
2026-04-28 19:26 16.09515 -97.73575 11010 ft 164 kts 105°
2026-04-28 19:27 16.09141 -97.72455 11009 ft 165 kts 105°
2026-04-28 19:27 16.08764 -97.71327 11012 ft 164 kts 105°
2026-04-28 19:27 16.08390 -97.70211 11014 ft 164 kts 105°
2026-04-28 19:27 16.08012 -97.69085 11012 ft 164 kts 105°
2026-04-28 19:28 16.07643 -97.67982 11011 ft 163 kts 105°
2026-04-28 19:28 16.07267 -97.66859 11018 ft 164 kts 105°
2026-04-28 19:28 16.06892 -97.65747 11011 ft 163 kts 105°
2026-04-28 19:28 16.06521 -97.64637 11016 ft 162 kts 105°
2026-04-28 19:29 16.06156 -97.63536 11021 ft 162 kts 105°
2026-04-28 19:29 16.05907 -97.62792 11021 ft 163 kts 105°
2026-04-28 19:29 16.05409 -97.61310 11019 ft 162 kts 105°
2026-04-28 19:29 16.05035 -97.60199 11020 ft 162 kts 105°
2026-04-28 19:30 16.04664 -97.59096 11015 ft 162 kts 104°
2026-04-28 19:30 16.04299 -97.58002 11024 ft 162 kts 104°
2026-04-28 19:30 16.03924 -97.56885 11025 ft 162 kts 104°
2026-04-28 19:30 16.03558 -97.55796 11020 ft 160 kts 104°
2026-04-28 19:31 16.03192 -97.54704 11023 ft 158 kts 104°
2026-04-28 19:31 16.02831 -97.53636 11034 ft 158 kts 104°
2026-04-28 19:31 16.02471 -97.52556 11030 ft 158 kts 104°
2026-04-28 19:31 16.02112 -97.51484 11036 ft 158 kts 104°
2026-04-28 19:32 16.01745 -97.50394 11033 ft 159 kts 104°
2026-04-28 19:32 16.01377 -97.49300 11033 ft 159 kts 104°
2026-04-28 19:32 16.01016 -97.48223 11036 ft 159 kts 104°
2026-04-28 19:32 16.00649 -97.47134 11040 ft 161 kts 104°
2026-04-28 19:33 16.00277 -97.46028 11041 ft 161 kts 104°
2026-04-28 19:33 15.99912 -97.44939 11043 ft 161 kts 104°
2026-04-28 19:33 15.99541 -97.43838 11050 ft 161 kts 104°
2026-04-28 19:33 15.99174 -97.42746 11052 ft 161 kts 104°
2026-04-28 19:34 15.98802 -97.41641 11053 ft 161 kts 104°
2026-04-28 19:34 15.98437 -97.40554 11060 ft 161 kts 103°
2026-04-28 19:34 15.98067 -97.39455 11060 ft 160 kts 103°
2026-04-28 19:34 15.97704 -97.38378 11064 ft 157 kts 103°
2026-04-28 19:35 15.97342 -97.37302 11065 ft 156 kts 103°
2026-04-28 19:35 15.96985 -97.36244 11068 ft 156 kts 103°
2026-04-28 19:35 15.96630 -97.35188 11075 ft 156 kts 103°
2026-04-28 19:35 15.96269 -97.34113 11077 ft 157 kts 103°
2026-04-28 19:36 15.95904 -97.33031 11079 ft 157 kts 103°
2026-04-28 19:36 15.95546 -97.31966 11083 ft 158 kts 103°
2026-04-28 19:36 15.95181 -97.30885 11082 ft 157 kts 103°
2026-04-28 19:36 15.94822 -97.29824 11084 ft 156 kts 103°
2026-04-28 19:37 15.94463 -97.28755 11089 ft 156 kts 103°
2026-04-28 19:37 15.94222 -97.28040 11093 ft 157 kts 103°
2026-04-28 19:37 15.93742 -97.26617 11095 ft 157 kts 103°
2026-04-28 19:37 15.93384 -97.25556 11099 ft 157 kts 103°
2026-04-28 19:38 15.93023 -97.24486 11103 ft 157 kts 103°
2026-04-28 19:38 15.92658 -97.23405 11106 ft 158 kts 103°
2026-04-28 19:38 15.92293 -97.22323 11106 ft 158 kts 103°
2026-04-28 19:38 15.91933 -97.21256 11108 ft 158 kts 103°
2026-04-28 19:39 15.91568 -97.20176 11111 ft 158 kts 103°
2026-04-28 19:39 15.91203 -97.19095 11113 ft 158 kts 103°
2026-04-28 19:39 15.90841 -97.18023 11114 ft 158 kts 103°
2026-04-28 19:39 15.90476 -97.16942 11116 ft 158 kts 103°
2026-04-28 19:40 15.90114 -97.15871 11116 ft 158 kts 103°
2026-04-28 19:40 15.89755 -97.14807 11115 ft 157 kts 103°
2026-04-28 19:40 15.89391 -97.13733 11115 ft 157 kts 103°
2026-04-28 19:40 15.89029 -97.12661 11115 ft 158 kts 103°
2026-04-28 19:41 15.88663 -97.11576 11117 ft 158 kts 103°
2026-04-28 19:41 15.88302 -97.10507 11116 ft 158 kts 103°
2026-04-28 19:41 15.87935 -97.09422 11120 ft 158 kts 103°
2026-04-28 19:41 15.87570 -97.08340 11118 ft 158 kts 102°
2026-04-28 19:42 15.87394 -97.07242 11116 ft 154 kts 91°
2026-04-28 19:42 15.87273 -97.06125 11116 ft 155 kts 91°
2026-04-28 19:42 15.87144 -97.05019 11116 ft 155 kts 92°
2026-04-28 19:42 15.87057 -97.04278 11118 ft 155 kts 92°
2026-04-28 19:43 15.86884 -97.02800 11117 ft 154 kts 92°
2026-04-28 19:43 15.86754 -97.01688 11116 ft 155 kts 91°
2026-04-28 19:43 15.86624 -97.00584 11119 ft 155 kts 91°
2026-04-28 19:43 15.86495 -96.99474 11120 ft 156 kts 91°
2026-04-28 19:44 15.86362 -96.98345 11118 ft 157 kts 92°
2026-04-28 19:44 15.86232 -96.97239 11118 ft 156 kts 92°
2026-04-28 19:44 15.86100 -96.96115 11116 ft 157 kts 92°
2026-04-28 19:44 15.85969 -96.94983 11118 ft 157 kts 92°
2026-04-28 19:45 15.85837 -96.93865 11114 ft 156 kts 92°
2026-04-28 19:45 15.85705 -96.92757 11112 ft 153 kts 92°
2026-04-28 19:45 15.85576 -96.91653 11114 ft 153 kts 92°
2026-04-28 19:45 15.85447 -96.90548 11111 ft 153 kts 92°
2026-04-28 19:46 15.85319 -96.89456 11111 ft 155 kts 92°
2026-04-28 19:46 15.85188 -96.88339 11110 ft 155 kts 92°
2026-04-28 19:46 15.85058 -96.87231 11107 ft 156 kts 92°
2026-04-28 19:46 15.84926 -96.86118 11110 ft 156 kts 92°
2026-04-28 19:47 15.84794 -96.84993 11110 ft 157 kts 92°
2026-04-28 19:47 15.84660 -96.83863 11107 ft 158 kts 92°
2026-04-28 19:47 15.84528 -96.82742 11107 ft 157 kts 92°
2026-04-28 19:47 15.84394 -96.81606 11105 ft 157 kts 92°
2026-04-28 19:48 15.84261 -96.80482 11103 ft 157 kts 92°
2026-04-28 19:48 15.84129 -96.79367 11103 ft 157 kts 92°
2026-04-28 19:48 15.83997 -96.78245 11103 ft 157 kts 92°
2026-04-28 19:48 15.83864 -96.77114 11100 ft 158 kts 92°
2026-04-28 19:49 15.83730 -96.75983 11104 ft 158 kts 92°
2026-04-28 19:49 15.83595 -96.74847 11095 ft 158 kts 92°
2026-04-28 19:49 15.83463 -96.73721 11097 ft 158 kts 92°
2026-04-28 19:49 15.83327 -96.72574 11093 ft 158 kts 92°
2026-04-28 19:50 15.83058 -96.70307 11091 ft 159 kts 92°
2026-04-28 19:50 15.82923 -96.69169 11094 ft 158 kts 92°
2026-04-28 19:50 15.82790 -96.68040 11091 ft 159 kts 92°
2026-04-28 19:51 15.82653 -96.66890 11092 ft 159 kts 92°
2026-04-28 19:51 15.82518 -96.65756 11094 ft 159 kts 92°
2026-04-28 19:51 15.82381 -96.64606 11093 ft 160 kts 92°
2026-04-28 19:51 15.82245 -96.63460 11089 ft 159 kts 92°
2026-04-28 19:52 15.82111 -96.62334 11089 ft 158 kts 92°
2026-04-28 19:52 15.81977 -96.61195 11085 ft 157 kts 92°
2026-04-28 19:52 15.81843 -96.60076 11082 ft 157 kts 92°
2026-04-28 19:52 15.81710 -96.58960 11077 ft 157 kts 92°
2026-04-28 19:53 15.81576 -96.57828 11078 ft 158 kts 92°
2026-04-28 19:53 15.81442 -96.56701 11075 ft 159 kts 92°
2026-04-28 19:53 15.81305 -96.55560 11072 ft 158 kts 92°
2026-04-28 19:53 15.81171 -96.54440 11072 ft 156 kts 92°
2026-04-28 19:54 15.81037 -96.53324 11071 ft 154 kts 92°
2026-04-28 19:54 15.80907 -96.52218 11069 ft 156 kts 92°
2026-04-28 19:54 15.80775 -96.51106 11065 ft 156 kts 92°
2026-04-28 19:54 15.80639 -96.49978 11062 ft 156 kts 92°
2026-04-28 19:55 15.80505 -96.48856 11062 ft 157 kts 92°
2026-04-28 19:55 15.80370 -96.47728 11063 ft 157 kts 92°
2026-04-28 19:55 15.80238 -96.46623 11062 ft 156 kts 92°
2026-04-28 19:55 15.80103 -96.45493 11061 ft 157 kts 92°
2026-04-28 19:56 15.79969 -96.44371 11061 ft 157 kts 92°
2026-04-28 19:56 15.79833 -96.43237 11057 ft 157 kts 92°
2026-04-28 19:56 15.79699 -96.42120 11059 ft 157 kts 92°
2026-04-28 19:56 15.79563 -96.40983 11060 ft 157 kts 92°
2026-04-28 19:57 15.79429 -96.39867 11055 ft 157 kts 92°
2026-04-28 19:57 15.79292 -96.38732 11055 ft 158 kts 92°
2026-04-28 19:57 15.79159 -96.37613 11060 ft 158 kts 92°
2026-04-28 19:57 15.79021 -96.36470 11059 ft 158 kts 92°
2026-04-28 19:58 15.78886 -96.35342 11057 ft 159 kts 92°
2026-04-28 19:58 15.78794 -96.34584 11058 ft 158 kts 92°
2026-04-28 19:58 15.78614 -96.33078 11059 ft 158 kts 92°
2026-04-28 19:58 15.78522 -96.32319 11057 ft 158 kts 92°
2026-04-28 19:59 15.78340 -96.30804 11058 ft 159 kts 92°
2026-04-28 19:59 15.78249 -96.30046 11058 ft 159 kts 92°
2026-04-28 19:59 15.78110 -96.28905 11059 ft 158 kts 92°
2026-04-28 19:59 15.77931 -96.27411 11055 ft 158 kts 92°
2026-04-28 20:00 15.77844 -96.26653 11059 ft 157 kts 90°
2026-04-28 20:00 15.78075 -96.25577 11048 ft 152 kts 59°
2026-04-28 20:00 15.78649 -96.24650 11048 ft 152 kts 56°
2026-04-28 20:00 15.79214 -96.23722 11049 ft 152 kts 57°
2026-04-28 20:01 15.79763 -96.22800 11051 ft 152 kts 57°
2026-04-28 20:01 15.80327 -96.21850 11058 ft 153 kts 57°
2026-04-28 20:01 15.80883 -96.20912 11058 ft 153 kts 57°
2026-04-28 20:01 15.81437 -96.19977 11058 ft 153 kts 57°
2026-04-28 20:02 15.82000 -96.19027 11059 ft 153 kts 57°
2026-04-28 20:02 15.82552 -96.18097 11056 ft 153 kts 57°
2026-04-28 20:02 15.83110 -96.17155 11056 ft 152 kts 57°
2026-04-28 20:02 15.83665 -96.16218 11055 ft 153 kts 57°
2026-04-28 20:03 15.84223 -96.15278 11060 ft 152 kts 57°
2026-04-28 20:03 15.84774 -96.14345 11062 ft 153 kts 57°
2026-04-28 20:03 15.85339 -96.13392 11060 ft 154 kts 57°
2026-04-28 20:03 15.85897 -96.12451 11057 ft 154 kts 57°
2026-04-28 20:04 15.86459 -96.11501 11061 ft 155 kts 57°
2026-04-28 20:04 15.87025 -96.10545 11056 ft 154 kts 57°
2026-04-28 20:04 15.87578 -96.09611 11054 ft 153 kts 57°
2026-04-28 20:04 15.88134 -96.08671 11037 ft 149 kts 57°
2026-04-28 20:05 15.88676 -96.07754 11047 ft 149 kts 57°
2026-04-28 20:05 15.89218 -96.06839 11048 ft 151 kts 57°
2026-04-28 20:05 15.89764 -96.05917 11048 ft 148 kts 57°
2026-04-28 20:05 15.90308 -96.04996 11049 ft 150 kts 57°
2026-04-28 20:06 15.90849 -96.04080 11051 ft 151 kts 57°
2026-04-28 20:06 15.91405 -96.03140 11052 ft 152 kts 57°
2026-04-28 20:06 15.91962 -96.02197 11049 ft 153 kts 57°
2026-04-28 20:06 15.92514 -96.01263 11053 ft 153 kts 57°
2026-04-28 20:07 15.93075 -96.00314 11057 ft 153 kts 57°
2026-04-28 20:07 15.93445 -95.99687 11057 ft 154 kts 57°
2026-04-28 20:07 15.94188 -95.98430 11051 ft 154 kts 57°
2026-04-28 20:07 15.94753 -95.97472 11055 ft 155 kts 57°
2026-04-28 20:08 15.95320 -95.96514 11013 ft 159 kts 57°
2026-04-28 20:08 15.95903 -95.95525 11006 ft 158 kts 57°
2026-04-28 20:08 15.96471 -95.94564 11007 ft 157 kts 56°
2026-04-28 20:08 15.97043 -95.93594 11005 ft 156 kts 57°
2026-04-28 20:09 15.97609 -95.92636 11003 ft 157 kts 56°
2026-04-28 20:09 15.98177 -95.91674 10995 ft 157 kts 56°
2026-04-28 20:09 15.98749 -95.90704 11000 ft 155 kts 57°
2026-04-28 20:09 15.99310 -95.89752 10996 ft 157 kts 57°
2026-04-28 20:10 15.99886 -95.88776 10993 ft 157 kts 57°
2026-04-28 20:10 16.00457 -95.87807 10996 ft 157 kts 56°
2026-04-28 20:10 16.01026 -95.86844 10996 ft 158 kts 57°
2026-04-28 20:10 16.01603 -95.85864 10989 ft 157 kts 57°
2026-04-28 20:11 16.02176 -95.84894 10992 ft 157 kts 57°
2026-04-28 20:11 16.02744 -95.83933 10987 ft 157 kts 57°
2026-04-28 20:11 16.03307 -95.82976 10983 ft 155 kts 56°
2026-04-28 20:11 16.03871 -95.82021 10986 ft 154 kts 57°
2026-04-28 20:12 16.04419 -95.81086 10988 ft 153 kts 57°
2026-04-28 20:12 16.04981 -95.80136 10986 ft 154 kts 56°
2026-04-28 20:12 16.05545 -95.79177 10980 ft 155 kts 56°
2026-04-28 20:12 16.05921 -95.78538 10987 ft 156 kts 57°
2026-04-28 20:13 16.06686 -95.77239 10982 ft 159 kts 57°
2026-04-28 20:13 16.07256 -95.76272 10988 ft 157 kts 57°
2026-04-28 20:13 16.07834 -95.75291 10983 ft 159 kts 57°
2026-04-28 20:13 16.08409 -95.74317 10982 ft 158 kts 57°
2026-04-28 20:14 16.08979 -95.73346 10983 ft 155 kts 57°
2026-04-28 20:14 16.09540 -95.72394 10968 ft 155 kts 58°
2026-04-28 20:14 16.10106 -95.71431 10979 ft 155 kts 58°
2026-04-28 20:14 16.10674 -95.70465 10977 ft 159 kts 57°
2026-04-28 20:15 16.11251 -95.69486 10974 ft 160 kts 57°
2026-04-28 20:15 16.11827 -95.68506 10973 ft 157 kts 57°
2026-04-28 20:15 16.12393 -95.67545 10975 ft 157 kts 57°
2026-04-28 20:15 16.12969 -95.66567 10979 ft 158 kts 57°
2026-04-28 20:16 16.13540 -95.65595 10984 ft 155 kts 58°
2026-04-28 20:16 16.14098 -95.64646 10963 ft 155 kts 57°
2026-04-28 20:16 16.14658 -95.63693 10957 ft 151 kts 58°
2026-04-28 20:16 16.15207 -95.62760 10969 ft 153 kts 58°
2026-04-28 20:17 16.15761 -95.61818 10966 ft 155 kts 58°
2026-04-28 20:17 16.16333 -95.60841 10959 ft 157 kts 59°
2026-04-28 20:17 16.16901 -95.59882 10967 ft 156 kts 58°
2026-04-28 20:17 16.17466 -95.58914 10960 ft 157 kts 58°
2026-04-28 20:18 16.18044 -95.57930 10962 ft 160 kts 58°
2026-04-28 20:18 16.18424 -95.57284 10956 ft 158 kts 58°
2026-04-28 20:18 16.19189 -95.55979 10960 ft 158 kts 58°
2026-04-28 20:18 16.19767 -95.54995 10958 ft 160 kts 58°
2026-04-28 20:19 16.20351 -95.54001 10959 ft 160 kts 58°
2026-04-28 20:19 16.20925 -95.53021 10958 ft 161 kts 58°
2026-04-28 20:19 16.21514 -95.52022 10953 ft 161 kts 58°
2026-04-28 20:19 16.22096 -95.51031 10956 ft 160 kts 58°
2026-04-28 20:20 16.22676 -95.50040 10945 ft 161 kts 58°
2026-04-28 20:20 16.23258 -95.49052 10956 ft 159 kts 58°
2026-04-28 20:20 16.23832 -95.48070 10943 ft 156 kts 58°
2026-04-28 20:20 16.24391 -95.47115 10944 ft 155 kts 58°
2026-04-28 20:21 16.24950 -95.46164 10953 ft 155 kts 58°
2026-04-28 20:21 16.25527 -95.45179 10937 ft 160 kts 58°
2026-04-28 20:21 16.26102 -95.44200 10946 ft 159 kts 58°
2026-04-28 20:21 16.26676 -95.43220 10947 ft 160 kts 58°
2026-04-28 20:22 16.27252 -95.42241 10952 ft 156 kts 58°
2026-04-28 20:22 16.27814 -95.41276 10943 ft 153 kts 58°
2026-04-28 20:22 16.28371 -95.40327 10940 ft 155 kts 58°
2026-04-28 20:22 16.28930 -95.39375 10937 ft 155 kts 58°
2026-04-28 20:23 16.29494 -95.38412 10945 ft 155 kts 58°
2026-04-28 20:23 16.30063 -95.37440 10943 ft 157 kts 58°
2026-04-28 20:23 16.30635 -95.36463 10943 ft 160 kts 58°
2026-04-28 20:23 16.31212 -95.35479 10940 ft 161 kts 58°
2026-04-28 20:24 16.31795 -95.34481 10941 ft 160 kts 58°
2026-04-28 20:24 16.32373 -95.33495 10942 ft 161 kts 58°
2026-04-28 20:24 16.32959 -95.32495 10938 ft 160 kts 59°
2026-04-28 20:24 16.33537 -95.31504 10990 ft 158 kts 58°
2026-04-28 20:25 16.34099 -95.30545 10995 ft 157 kts 59°
2026-04-28 20:25 16.34673 -95.29567 10992 ft 158 kts 58°
2026-04-28 20:25 16.35250 -95.28580 10989 ft 159 kts 58°
2026-04-28 20:25 16.35820 -95.27604 10991 ft 159 kts 58°
2026-04-28 20:26 16.36398 -95.26616 10985 ft 158 kts 59°
2026-04-28 20:26 16.36964 -95.25646 10988 ft 158 kts 58°
2026-04-28 20:26 16.37540 -95.24665 10989 ft 158 kts 58°
2026-04-28 20:26 16.38107 -95.23693 10987 ft 158 kts 58°
2026-04-28 20:27 16.38676 -95.22720 10986 ft 158 kts 58°
2026-04-28 20:27 16.39249 -95.21739 10986 ft 158 kts 59°
2026-04-28 20:27 16.39820 -95.20763 10982 ft 158 kts 59°
2026-04-28 20:27 16.40390 -95.19787 10983 ft 157 kts 58°
2026-04-28 20:28 16.40958 -95.18815 10984 ft 158 kts 59°
2026-04-28 20:28 16.41532 -95.17829 10984 ft 156 kts 58°
2026-04-28 20:28 16.42096 -95.16868 10987 ft 156 kts 59°
2026-04-28 20:28 16.42664 -95.15894 10981 ft 157 kts 59°
2026-04-28 20:29 16.43226 -95.14933 10984 ft 156 kts 59°
2026-04-28 20:29 16.43794 -95.13961 10984 ft 156 kts 59°
2026-04-28 20:29 16.44354 -95.12999 10984 ft 157 kts 59°
2026-04-28 20:29 16.44924 -95.12023 10983 ft 157 kts 59°
2026-04-28 20:30 16.45488 -95.11056 10983 ft 157 kts 59°
2026-04-28 20:30 16.46026 -95.10057 10979 ft 157 kts 69°
2026-04-28 20:30 16.46052 -95.08928 10975 ft 160 kts 103°
2026-04-28 20:30 16.45493 -95.07917 10978 ft 164 kts 120°
2026-04-28 20:31 16.44850 -95.06943 10986 ft 164 kts 118°
2026-04-28 20:31 16.44229 -95.05934 10983 ft 165 kts 117°
2026-04-28 20:31 16.43616 -95.04921 10990 ft 165 kts 117°
2026-04-28 20:31 16.43006 -95.03912 10989 ft 165 kts 117°
2026-04-28 20:32 16.42398 -95.02905 10988 ft 166 kts 117°
2026-04-28 20:32 16.41782 -95.01883 10987 ft 166 kts 117°
2026-04-28 20:32 16.41168 -95.00867 10991 ft 166 kts 117°
2026-04-28 20:32 16.40555 -94.99854 10986 ft 166 kts 117°
2026-04-28 20:33 16.39936 -94.98827 10987 ft 167 kts 117°
2026-04-28 20:33 16.39320 -94.97810 10980 ft 167 kts 117°
2026-04-28 20:33 16.38697 -94.96777 10983 ft 167 kts 117°
2026-04-28 20:33 16.38081 -94.95761 10985 ft 167 kts 117°
2026-04-28 20:34 16.37457 -94.94726 10980 ft 167 kts 117°
2026-04-28 20:34 16.36841 -94.93711 10980 ft 166 kts 117°
2026-04-28 20:34 16.36234 -94.92706 10977 ft 165 kts 117°
2026-04-28 20:34 16.35619 -94.91690 10985 ft 164 kts 117°
2026-04-28 20:35 16.35010 -94.90682 10983 ft 167 kts 117°
2026-04-28 20:35 16.34387 -94.89652 10977 ft 167 kts 117°
2026-04-28 20:35 16.33771 -94.88634 10980 ft 167 kts 117°
2026-04-28 20:35 16.33155 -94.87617 10980 ft 167 kts 117°
2026-04-28 20:36 16.32534 -94.86591 10979 ft 166 kts 117°
2026-04-28 20:36 16.31919 -94.85576 10982 ft 164 kts 116°
2026-04-28 20:36 16.31315 -94.84579 10979 ft 163 kts 117°
2026-04-28 20:36 16.30711 -94.83581 10981 ft 164 kts 117°
2026-04-28 20:37 16.30101 -94.82574 10980 ft 163 kts 117°
2026-04-28 20:37 16.29501 -94.81583 10981 ft 163 kts 117°
2026-04-28 20:37 16.28887 -94.80571 10978 ft 164 kts 117°
2026-04-28 20:37 16.28284 -94.79574 10980 ft 164 kts 117°
2026-04-28 20:38 16.27670 -94.78560 10981 ft 165 kts 117°
2026-04-28 20:38 16.27063 -94.77560 10980 ft 164 kts 117°
2026-04-28 20:38 16.26448 -94.76546 10979 ft 164 kts 117°
2026-04-28 20:38 16.25846 -94.75552 10979 ft 163 kts 117°
2026-04-28 20:39 16.25243 -94.74559 10978 ft 163 kts 116°
2026-04-28 20:39 16.24635 -94.73555 10974 ft 162 kts 116°
2026-04-28 20:39 16.24038 -94.72570 10978 ft 162 kts 116°
2026-04-28 20:39 16.23433 -94.71574 10979 ft 162 kts 116°
2026-04-28 20:40 16.22832 -94.70584 10977 ft 162 kts 116°
2026-04-28 20:40 16.22430 -94.69920 10980 ft 162 kts 116°
2026-04-28 20:40 16.21626 -94.68595 10983 ft 163 kts 116°
2026-04-28 20:40 16.21014 -94.67587 10982 ft 164 kts 116°
2026-04-28 20:41 16.20403 -94.66581 10980 ft 166 kts 116°
2026-04-28 20:41 16.19994 -94.65907 10979 ft 165 kts 116°
2026-04-28 20:41 16.19380 -94.64896 10978 ft 164 kts 116°
2026-04-28 20:41 16.18777 -94.63904 10981 ft 163 kts 116°
2026-04-28 20:42 16.18166 -94.62897 10982 ft 163 kts 116°
2026-04-28 20:42 16.17563 -94.61905 10978 ft 163 kts 116°
2026-04-28 20:42 16.16962 -94.60915 10977 ft 162 kts 116°
2026-04-28 20:42 16.16362 -94.59928 10979 ft 162 kts 116°
2026-04-28 20:43 16.15756 -94.58930 10978 ft 162 kts 116°
2026-04-28 20:43 16.15152 -94.57935 10991 ft 161 kts 116°
2026-04-28 20:43 16.14557 -94.56957 10994 ft 162 kts 116°
2026-04-28 20:43 16.13954 -94.55964 10994 ft 162 kts 116°
2026-04-28 20:44 16.13347 -94.54967 10994 ft 162 kts 116°
2026-04-28 20:44 16.12748 -94.53981 10993 ft 162 kts 116°
2026-04-28 20:44 16.12141 -94.52984 10993 ft 162 kts 116°
2026-04-28 20:44 16.11540 -94.51995 10995 ft 162 kts 116°
2026-04-28 20:45 16.10939 -94.51008 10995 ft 162 kts 116°
2026-04-28 20:45 16.10336 -94.50018 10995 ft 162 kts 116°
2026-04-28 20:45 16.09730 -94.49021 10993 ft 162 kts 116°
2026-04-28 20:45 16.09133 -94.48040 10996 ft 162 kts 116°
2026-04-28 20:46 16.08528 -94.47045 10994 ft 162 kts 116°
2026-04-28 20:46 16.07928 -94.46060 10996 ft 162 kts 116°
2026-04-28 20:46 16.07318 -94.45058 10995 ft 162 kts 116°
2026-04-28 20:46 16.06719 -94.44075 10995 ft 162 kts 116°
2026-04-28 20:47 16.06121 -94.43093 10997 ft 162 kts 116°
2026-04-28 20:47 16.05515 -94.42098 10992 ft 162 kts 116°
2026-04-28 20:47 16.04908 -94.41101 10993 ft 162 kts 116°
2026-04-28 20:47 16.04307 -94.40113 10993 ft 162 kts 116°
2026-04-28 20:48 16.03707 -94.39130 10994 ft 162 kts 116°
2026-04-28 20:48 16.03097 -94.38129 10998 ft 162 kts 116°
2026-04-28 20:48 16.02494 -94.37140 10997 ft 162 kts 116°
2026-04-28 20:48 16.01895 -94.36156 10995 ft 162 kts 116°
2026-04-28 20:49 16.01292 -94.35169 10996 ft 162 kts 116°
2026-04-28 20:49 16.00684 -94.34171 10999 ft 162 kts 116°
2026-04-28 20:49 16.00080 -94.33180 10997 ft 162 kts 116°
2026-04-28 20:49 15.99480 -94.32197 10995 ft 162 kts 116°
2026-04-28 20:50 15.98869 -94.31196 10998 ft 162 kts 116°
2026-04-28 20:50 15.98268 -94.30210 10998 ft 162 kts 116°
2026-04-28 20:50 15.97663 -94.29218 10996 ft 162 kts 116°
2026-04-28 20:50 15.97062 -94.28234 10998 ft 162 kts 116°
2026-04-28 20:51 15.96457 -94.27243 10997 ft 162 kts 116°
2026-04-28 20:51 15.95855 -94.26255 10997 ft 162 kts 116°
2026-04-28 20:51 15.95243 -94.25254 10997 ft 162 kts 116°
2026-04-28 20:51 15.94640 -94.24267 10998 ft 162 kts 116°
2026-04-28 20:52 15.94041 -94.23285 10998 ft 162 kts 116°
2026-04-28 20:52 15.93434 -94.22291 10997 ft 162 kts 116°
2026-04-28 20:52 15.92835 -94.21310 10997 ft 162 kts 116°
2026-04-28 20:52 15.92235 -94.20329 10996 ft 162 kts 116°
2026-04-28 20:53 15.91029 -94.18353 10998 ft 162 kts 116°
2026-04-28 20:53 15.90428 -94.17371 10996 ft 162 kts 116°
2026-04-28 20:53 15.89818 -94.16373 10999 ft 162 kts 116°
2026-04-28 20:54 15.89219 -94.15393 11002 ft 162 kts 116°
2026-04-28 20:54 15.88619 -94.14412 11000 ft 162 kts 116°
2026-04-28 20:54 15.88013 -94.13421 11000 ft 161 kts 116°
2026-04-28 20:54 15.87412 -94.12438 11002 ft 161 kts 116°
2026-04-28 20:55 15.86807 -94.11450 11000 ft 161 kts 116°
2026-04-28 20:55 15.86209 -94.10470 11003 ft 161 kts 116°
2026-04-28 20:55 15.85608 -94.09488 11001 ft 161 kts 116°
2026-04-28 20:55 15.85003 -94.08500 11002 ft 161 kts 116°
2026-04-28 20:56 15.84406 -94.07524 11003 ft 161 kts 116°
2026-04-28 20:56 15.83802 -94.06538 10999 ft 161 kts 116°
2026-04-28 20:56 15.83205 -94.05562 10999 ft 161 kts 116°
2026-04-28 20:56 15.82599 -94.04572 11003 ft 161 kts 116°
2026-04-28 20:57 15.82002 -94.03597 11002 ft 161 kts 116°
2026-04-28 20:57 15.81398 -94.02611 11003 ft 161 kts 116°
2026-04-28 20:57 15.80798 -94.01631 11005 ft 161 kts 116°
2026-04-28 20:57 15.80200 -94.00655 11003 ft 161 kts 116°
2026-04-28 20:58 15.79604 -93.99682 11000 ft 161 kts 116°
2026-04-28 20:58 15.79006 -93.98706 11005 ft 161 kts 116°
2026-04-28 20:58 15.78402 -93.97721 11004 ft 161 kts 116°
2026-04-28 20:58 15.77808 -93.96751 11005 ft 160 kts 116°
2026-04-28 20:59 15.77206 -93.95768 11003 ft 160 kts 116°
2026-04-28 20:59 15.76609 -93.94795 11006 ft 160 kts 116°
2026-04-28 20:59 15.76012 -93.93821 11010 ft 160 kts 116°
2026-04-28 20:59 15.75413 -93.92844 11007 ft 160 kts 116°
2026-04-28 21:00 15.74817 -93.91871 11008 ft 160 kts 116°
2026-04-28 21:00 15.74214 -93.90889 11003 ft 160 kts 115°
2026-04-28 21:00 15.73620 -93.89919 11002 ft 160 kts 115°
2026-04-28 21:00 15.73017 -93.88937 11003 ft 160 kts 115°
2026-04-28 21:01 15.72425 -93.87972 11002 ft 160 kts 115°
2026-04-28 21:01 15.71824 -93.86992 11010 ft 160 kts 115°
2026-04-28 21:01 15.71224 -93.86014 11008 ft 160 kts 115°
2026-04-28 21:01 15.70628 -93.85043 11008 ft 160 kts 115°
2026-04-28 21:02 15.70035 -93.84077 11008 ft 160 kts 115°
2026-04-28 21:02 15.69434 -93.83097 11009 ft 160 kts 115°
2026-04-28 21:02 15.68842 -93.82134 11008 ft 160 kts 115°
2026-04-28 21:02 15.68242 -93.81156 11008 ft 160 kts 115°
2026-04-28 21:03 15.67651 -93.80194 11011 ft 159 kts 115°
2026-04-28 21:03 15.67050 -93.79216 11006 ft 159 kts 115°
2026-04-28 21:03 15.66458 -93.78252 11008 ft 159 kts 115°
2026-04-28 21:03 15.65860 -93.77278 11008 ft 159 kts 115°
2026-04-28 21:04 15.65268 -93.76316 11008 ft 159 kts 115°
2026-04-28 21:04 15.64673 -93.75346 11004 ft 159 kts 115°
2026-04-28 21:04 15.64080 -93.74383 11004 ft 159 kts 115°
2026-04-28 21:04 15.63481 -93.73408 11006 ft 159 kts 115°
2026-04-28 21:05 15.62888 -93.72442 11005 ft 159 kts 115°
2026-04-28 21:05 15.62295 -93.71478 11005 ft 159 kts 115°
2026-04-28 21:05 15.61701 -93.70512 11004 ft 159 kts 115°
2026-04-28 21:05 15.61107 -93.69547 11006 ft 159 kts 115°
2026-04-28 21:06 15.60505 -93.68568 11007 ft 159 kts 115°
2026-04-28 21:06 15.59911 -93.67602 11005 ft 160 kts 115°
2026-04-28 21:06 15.59318 -93.66637 11009 ft 160 kts 116°
2026-04-28 21:06 15.58713 -93.65654 11007 ft 160 kts 116°
2026-04-28 21:07 15.58116 -93.64684 11005 ft 160 kts 116°
2026-04-28 21:07 15.57514 -93.63707 11009 ft 160 kts 116°
2026-04-28 21:07 15.56916 -93.62736 11009 ft 160 kts 116°
2026-04-28 21:07 15.56320 -93.61766 11009 ft 161 kts 116°
2026-04-28 21:08 15.55714 -93.60782 11007 ft 161 kts 116°
2026-04-28 21:08 15.55110 -93.59802 11008 ft 161 kts 116°
2026-04-28 21:08 15.54513 -93.58832 11009 ft 161 kts 116°
2026-04-28 21:08 15.53909 -93.57851 11008 ft 161 kts 116°
2026-04-28 21:09 15.53308 -93.56877 11006 ft 161 kts 116°
2026-04-28 21:09 15.52707 -93.55901 11008 ft 161 kts 116°
2026-04-28 21:09 15.52106 -93.54926 11008 ft 161 kts 116°
2026-04-28 21:09 15.51500 -93.53942 11008 ft 161 kts 116°
2026-04-28 21:10 15.50900 -93.52969 11005 ft 161 kts 116°
2026-04-28 21:10 15.50294 -93.51985 11006 ft 161 kts 116°
2026-04-28 21:10 15.49696 -93.51016 11007 ft 161 kts 116°
2026-04-28 21:10 15.49093 -93.50036 11006 ft 161 kts 116°
2026-04-28 21:11 15.48484 -93.49051 11007 ft 161 kts 116°
2026-04-28 21:11 15.47883 -93.48075 11008 ft 161 kts 116°
2026-04-28 21:11 15.47282 -93.47101 11007 ft 161 kts 116°
2026-04-28 21:11 15.46681 -93.46127 11006 ft 161 kts 116°
2026-04-28 21:12 15.46072 -93.45140 11007 ft 161 kts 116°
2026-04-28 21:12 15.45472 -93.44167 11009 ft 161 kts 116°
2026-04-28 21:12 15.44862 -93.43179 11009 ft 161 kts 116°
2026-04-28 21:12 15.44260 -93.42205 11010 ft 161 kts 116°
2026-04-28 21:13 15.43659 -93.41229 11011 ft 161 kts 116°
2026-04-28 21:13 15.43058 -93.40256 11009 ft 161 kts 116°
2026-04-28 21:13 15.42449 -93.39271 11013 ft 161 kts 116°
2026-04-28 21:13 15.41843 -93.38289 11013 ft 161 kts 116°
2026-04-28 21:14 15.41243 -93.37317 11010 ft 161 kts 116°
2026-04-28 21:14 15.40641 -93.36343 11014 ft 161 kts 116°
2026-04-28 21:14 15.40031 -93.35355 11011 ft 161 kts 116°
2026-04-28 21:14 15.39424 -93.34372 11010 ft 161 kts 116°
2026-04-28 21:15 15.38819 -93.33394 11011 ft 161 kts 116°
2026-04-28 21:15 15.38216 -93.32419 11010 ft 161 kts 116°
2026-04-28 21:15 15.37616 -93.31447 11011 ft 161 kts 116°
2026-04-28 21:15 15.37013 -93.30472 11011 ft 161 kts 116°
2026-04-28 21:16 15.36401 -93.29483 11011 ft 161 kts 116°
2026-04-28 21:16 15.35800 -93.28511 11011 ft 161 kts 116°
2026-04-28 21:16 15.35195 -93.27532 11007 ft 161 kts 116°
2026-04-28 21:16 15.34593 -93.26558 11008 ft 161 kts 116°
2026-04-28 21:17 15.33981 -93.25570 11009 ft 162 kts 116°
2026-04-28 21:17 15.33379 -93.24597 11010 ft 162 kts 116°
2026-04-28 21:17 15.32770 -93.23612 11010 ft 162 kts 116°
2026-04-28 21:17 15.32167 -93.22637 11008 ft 162 kts 116°
2026-04-28 21:18 15.31560 -93.21657 11010 ft 162 kts 116°
2026-04-28 21:18 15.30947 -93.20667 11009 ft 162 kts 116°
2026-04-28 21:18 15.30340 -93.19686 11009 ft 162 kts 116°
2026-04-28 21:18 15.29732 -93.18703 11009 ft 162 kts 116°
2026-04-28 21:19 15.29121 -93.17717 11009 ft 162 kts 116°
2026-04-28 21:19 15.28511 -93.16733 11012 ft 162 kts 116°
2026-04-28 21:19 15.27907 -93.15756 11013 ft 163 kts 116°
2026-04-28 21:19 15.27292 -93.14764 11012 ft 163 kts 116°
2026-04-28 21:20 15.26685 -93.13784 11011 ft 163 kts 116°
2026-04-28 21:20 15.26068 -93.12788 11013 ft 163 kts 116°
2026-04-28 21:20 15.25452 -93.11794 11011 ft 163 kts 116°
2026-04-28 21:20 15.24844 -93.10813 11012 ft 163 kts 117°
2026-04-28 21:21 15.24228 -93.09819 11010 ft 163 kts 117°
2026-04-28 21:21 15.23619 -93.08837 11007 ft 163 kts 116°
2026-04-28 21:21 15.22999 -93.07837 11008 ft 163 kts 117°
2026-04-28 21:21 15.22392 -93.06858 11010 ft 163 kts 117°
2026-04-28 21:22 15.21776 -93.05865 11010 ft 163 kts 117°
2026-04-28 21:22 15.21165 -93.04880 11011 ft 164 kts 117°
2026-04-28 21:22 15.20548 -93.03885 11009 ft 164 kts 116°
2026-04-28 21:22 15.20136 -93.03222 11010 ft 164 kts 117°
2026-04-28 21:23 15.19314 -93.01897 11009 ft 164 kts 117°
2026-04-28 21:23 15.18902 -93.01233 11009 ft 164 kts 117°
2026-04-28 21:23 15.18287 -93.00241 11009 ft 164 kts 117°
2026-04-28 21:23 15.17460 -92.98909 11007 ft 165 kts 117°
2026-04-28 21:24 15.16841 -92.97913 11007 ft 165 kts 117°
2026-04-28 21:24 15.16427 -92.97246 11008 ft 165 kts 117°
2026-04-28 21:24 15.15803 -92.96240 11006 ft 164 kts 117°
2026-04-28 21:24 15.15197 -92.95267 10879 ft 163 kts 117°
2026-04-28 21:25 15.14573 -92.94260 10692 ft 166 kts 117°
2026-04-28 21:25 15.13951 -92.93259 10506 ft 167 kts 117°
2026-04-28 21:25 15.13317 -92.92239 10320 ft 168 kts 117°
2026-04-28 21:25 15.12689 -92.91227 10140 ft 168 kts 117°
2026-04-28 21:26 15.12049 -92.90199 9956 ft 169 kts 117°
2026-04-28 21:26 15.11414 -92.89176 9780 ft 170 kts 118°
2026-04-28 21:26 15.10779 -92.88155 9582 ft 171 kts 118°
2026-04-28 21:26 15.10131 -92.87112 9385 ft 171 kts 118°
2026-04-28 21:27 15.09492 -92.86084 9185 ft 172 kts 119°
2026-04-28 21:27 15.08843 -92.85041 8993 ft 172 kts 118°
2026-04-28 21:27 15.08196 -92.84000 8796 ft 172 kts 119°
2026-04-28 21:27 15.07538 -92.82944 8599 ft 173 kts 119°
2026-04-28 21:28 15.06895 -92.81910 8407 ft 173 kts 119°
2026-04-28 21:28 15.06237 -92.80851 8214 ft 174 kts 119°
2026-04-28 21:28 15.05586 -92.79806 8025 ft 174 kts 119°
2026-04-28 21:28 15.04925 -92.78745 7829 ft 174 kts 119°
2026-04-28 21:29 15.04275 -92.77701 7646 ft 174 kts 119°
2026-04-28 21:29 15.03618 -92.76645 7456 ft 174 kts 120°
2026-04-28 21:29 15.02969 -92.75600 7269 ft 174 kts 120°
2026-04-28 21:29 15.02306 -92.74536 7080 ft 175 kts 120°
2026-04-28 21:30 15.01650 -92.73485 6899 ft 175 kts 121°
2026-04-28 21:30 15.00987 -92.72420 6707 ft 176 kts 121°
2026-04-28 21:30 15.00326 -92.71359 6533 ft 176 kts 121°
2026-04-28 21:30 14.99667 -92.70302 6348 ft 176 kts 122°
2026-04-28 21:31 14.99001 -92.69234 6163 ft 177 kts 122°
2026-04-28 21:31 14.98328 -92.68155 5964 ft 178 kts 122°
2026-04-28 21:31 14.97664 -92.67089 5777 ft 178 kts 122°
2026-04-28 21:31 14.96995 -92.66017 5586 ft 178 kts 122°
2026-04-28 21:32 14.96317 -92.64930 5395 ft 178 kts 122°
2026-04-28 21:32 14.95649 -92.63859 5197 ft 178 kts 122°
2026-04-28 21:32 14.94979 -92.62785 5020 ft 178 kts 122°
2026-04-28 21:32 14.94304 -92.61703 4835 ft 178 kts 122°
2026-04-28 21:33 14.93639 -92.60638 4648 ft 178 kts 122°
2026-04-28 21:33 14.92966 -92.59560 4450 ft 178 kts 122°
2026-04-28 21:33 14.92291 -92.58480 4257 ft 178 kts 122°
2026-04-28 21:33 14.91630 -92.57420 4066 ft 178 kts 123°
2026-04-28 21:34 14.90955 -92.56339 3877 ft 178 kts 123°
2026-04-28 21:34 14.90282 -92.55264 3685 ft 178 kts 123°
2026-04-28 21:34 14.89619 -92.54202 3499 ft 178 kts 123°
2026-04-28 21:34 14.88946 -92.53124 3312 ft 177 kts 123°
2026-04-28 21:35 14.88289 -92.52073 3157 ft 169 kts 123°
2026-04-28 21:35 14.87664 -92.51072 3053 ft 162 kts 123°
2026-04-28 21:35 14.87069 -92.50120 2993 ft 154 kts 123°
2026-04-28 21:35 14.86502 -92.49213 2992 ft 145 kts 123°
2026-04-28 21:36 14.85969 -92.48359 2992 ft 139 kts 123°
2026-04-28 21:36 14.85457 -92.47540 2994 ft 134 kts 123°
2026-04-28 21:36 14.84953 -92.46734 2996 ft 131 kts 124°
2026-04-28 21:36 14.84464 -92.45951 2998 ft 129 kts 124°
2026-04-28 21:37 14.83979 -92.45177 2994 ft 125 kts 124°
2026-04-28 21:37 14.83520 -92.44443 2994 ft 121 kts 124°
2026-04-28 21:37 14.83067 -92.43718 2997 ft 118 kts 124°
2026-04-28 21:37 14.82623 -92.43009 2993 ft 116 kts 124°
2026-04-28 21:38 14.82194 -92.42322 2996 ft 114 kts 124°
2026-04-28 21:38 14.81764 -92.41635 2990 ft 113 kts 124°
2026-04-28 21:38 14.81344 -92.40965 2991 ft 111 kts 124°
2026-04-28 21:38 14.80925 -92.40296 2989 ft 110 kts 124°
2026-04-28 21:39 14.80515 -92.39639 2992 ft 109 kts 124°
2026-04-28 21:39 14.80105 -92.38985 2993 ft 108 kts 124°
2026-04-28 21:39 14.79694 -92.38327 2990 ft 108 kts 124°
2026-04-28 21:39 14.79393 -92.37631 2979 ft 110 kts 94°
2026-04-28 21:40 14.79662 -92.36859 2834 ft 120 kts 55°
2026-04-28 21:40 14.80144 -92.36147 2693 ft 120 kts 57°
2026-04-28 21:40 14.80606 -92.35444 2548 ft 119 kts 57°
2026-04-28 21:40 14.81074 -92.34729 2408 ft 121 kts 57°
2026-04-28 21:41 14.81551 -92.33994 2258 ft 124 kts 57°
2026-04-28 21:41 14.82027 -92.33265 2197 ft 119 kts 57°
2026-04-28 21:41 14.82471 -92.32587 2188 ft 109 kts 57°
2026-04-28 21:41 14.82880 -92.31963 2194 ft 100 kts 57°
2026-04-28 21:42 14.83257 -92.31381 2187 ft 94 kts 57°
2026-04-28 21:42 14.83617 -92.30834 2195 ft 96 kts 56°
2026-04-28 21:42 14.83996 -92.30254 2196 ft 98 kts 58°
2026-04-28 21:42 14.84377 -92.29665 2206 ft 101 kts 58°
2026-04-28 21:43 14.84787 -92.29035 2208 ft 109 kts 57°
2026-04-28 21:43 14.85217 -92.28364 2203 ft 116 kts 61°
2026-04-28 21:43 14.85300 -92.27583 2200 ft 109 kts 106°
2026-04-28 21:43 14.85144 -92.26826 2200 ft 106 kts 103°
2026-04-28 21:44 14.85015 -92.26084 2195 ft 104 kts 103°
2026-04-28 21:44 14.84959 -92.25351 2190 ft 103 kts 76°
2026-04-28 21:44 14.85373 -92.24772 2194 ft 103 kts 31°
2026-04-28 21:44 14.86061 -92.24623 2191 ft 100 kts 347°
2026-04-28 21:45 14.86631 -92.24962 2192 ft 95 kts 306°
2026-04-28 21:45 14.86856 -92.25571 2198 ft 91 kts 268°
2026-04-28 21:45 14.86673 -92.26183 2199 ft 90 kts 233°
2026-04-28 21:45 14.86313 -92.26723 2209 ft 93 kts 236°
2026-04-28 21:46 14.85941 -92.27304 2208 ft 99 kts 236°
2026-04-28 21:46 14.85552 -92.27903 2206 ft 102 kts 234°
2026-04-28 21:46 14.85135 -92.28524 2030 ft 107 kts 235°
2026-04-28 21:46 14.84716 -92.29147 1803 ft 102 kts 233°
2026-04-28 21:47 14.84314 -92.29743 1570 ft 99 kts 234°
2026-04-28 21:47 14.83920 -92.30327 1322 ft 100 kts 236°
2026-04-28 21:47 14.83546 -92.30888 1124 ft 89 kts 233°
2026-04-28 21:47 14.83189 -92.31408 1015 ft 86 kts 236°
2026-04-28 21:48 14.82878 -92.31871 1014 ft 73 kts 232°
2026-04-28 21:48 14.82611 -92.32261 1028 ft 63 kts 231°
2026-04-28 21:48 14.82352 -92.32643 1040 ft 65 kts 232°
2026-04-28 21:48 14.82076 -92.33048 1034 ft 73 kts 230°
2026-04-28 21:49 14.81773 -92.33503 1057 ft 80 kts 231°
2026-04-28 21:49 14.81422 -92.34022 1037 ft 95 kts 234°
2026-04-28 21:49 14.81041 -92.34595 975 ft 99 kts 230°
2026-04-28 21:49 14.80685 -92.35160 699 ft 90 kts 237°
2026-04-28 21:50 14.80353 -92.35653 435 ft 79 kts 232°
2026-04-28 21:50 14.80044 -92.36086 212 ft 72 kts 232°
2026-04-28 21:50 14.79790 -92.36478 97 ft 57 kts 234°
2026-04-28 21:50 14.79582 -92.36757 90 ft 41 kts 224°
2026-04-28 21:51 14.79384 -92.36870 88 ft 29 kts 207°
2026-04-28 21:51 14.79276 -92.36906 89 ft 9 kts 220°
2026-04-28 21:51 14.79214 -92.36923 86 ft 10 kts 155°
2026-04-28 21:51 14.79199 -92.36866 87 ft 9 kts 64°
2026-04-28 21:52 14.79235 -92.36823 88 ft 7 kts 58°
2026-04-28 21:52 14.79223 -92.36809 88 ft 3 kts 244°
2026-04-28 21:52 14.79219 -92.36816 90 ft 0 kts 236°